Location: Gleizolles
(44.4833°N, 6.7667°E)
Time: 06:41:02
(UTC+00:00)

Envisat - Visible Passes

Search period start: 07 December 2021 00:00
Search period end: 17 December 2021 00:00
Orbit: 764 x 766 km, 98.2° (Epoch: 06 December)

Date Brightness Start Highest point End Pass type
(mag) Time Alt. Az. Time Alt. Az. Time Alt. Az.
07 Dec 5.0 03:43:25 10° NE 03:47:42 27° E 03:51:57 10° SSE visible
07 Dec 3.4 05:22:05 10° N 05:26:49 40° WNW 05:31:31 10° SW visible
07 Dec 5.5 16:39:04 10° SSW 16:43:15 26° W 16:47:28 10° NW visible
08 Dec 6.0 03:08:24 10° ENE 03:10:25 12° E 03:12:26 10° ESE visible
08 Dec 2.9 04:44:58 10° NNE 04:50:05 84° WNW 04:55:10 10° SSW visible
09 Dec 4.0 04:08:17 10° NNE 04:13:09 45° E 04:18:01 10° S visible
09 Dec 4.0 05:47:50 10° N 05:51:55 25° WNW 05:55:58 10° WSW visible
09 Dec 6.0 17:05:57 10° SW 17:08:49 15° W 17:11:43 10° NW visible
10 Dec 5.3 03:32:11 10° NE 03:36:02 21° E 03:39:52 10° SE visible
10 Dec 3.1 05:10:25 10° N 05:15:19 50° WNW 05:20:12 10° SW visible
10 Dec 5.1 16:27:06 10° SSW 16:31:36 32° W 16:36:09 10° NNW visible
11 Dec 3.0 04:33:26 10° NNE 04:38:32 78° ESE 04:43:36 10° S visible
11 Dec 4.5 06:14:00 10° NNW 06:16:54 15° WNW 06:19:49 10° W visible
12 Dec 4.4 03:56:52 10° NNE 04:01:33 36° E 04:06:11 10° SSE visible
12 Dec 3.7 05:36:03 10° N 05:40:27 30° WNW 05:44:50 10° SW visible
12 Dec 5.8 16:53:35 10° SW 16:57:09 19° W 17:00:43 10° NW visible
13 Dec 5.6 03:21:06 10° NE 03:24:21 17° E 03:27:36 10° SE visible
13 Dec 2.9 04:58:46 10° N 05:03:48 63° WNW 05:08:48 10° SSW visible
14 Dec 3.4 04:21:54 10° NNE 04:26:57 62° E 04:31:58 10° S visible
14 Dec 4.2 06:01:59 10° NNW 06:05:30 19° WNW 06:08:59 10° WSW visible
14 Dec 6.3 17:21:38 10° W 17:22:46 11° W 17:23:54 10° WNW visible
15 Dec 4.8 03:45:31 10° NE 03:49:55 28° E 03:54:16 10° SSE visible
15 Dec 3.4 05:24:19 10° N 05:28:58 37° WNW 05:33:37 10° SW visible
15 Dec 5.6 16:41:25 10° SSW 16:45:28 24° W 16:49:32 10° NW visible
16 Dec 5.9 03:10:16 10° ENE 03:12:39 13° E 03:15:02 10° ESE visible
16 Dec 2.8 04:47:10 10° N 04:52:16 79° WNW 04:57:20 10° SSW visible
16 Dec 4.7 06:28:42 10° NW 06:30:26 12° WNW 06:32:10 10° WNW visible
